Miami, FL

1:32 PM EST on December 08, 2019 (GMT -0500)
Miami International

Weather History for KMIA - September, 2019

Change the Weather History Date:

Monday, September 16, 2019

  Actual Average Record
Temperature  
Mean Temperature 88 °F 83 °F  
Max Temperature 95 °F 89 °F 95 °F (2019)
Min Temperature 80 °F 77 °F 69 °F (1914)
Degree Days  
Heating Degree Days 0 0  
Month to date heating degree days 0 0  
Since 1 July heating degree days 0 0  
Cooling Degree Days 23 18  
Month to date cooling degree days 347 290  
Year to date cooling degree days 3825 3365  
Growing Degree Days 38 (Base 50)    
Moisture  
Dew Point 74 °F    
Average Humidity 66    
Maximum Humidity 85    
Minimum Humidity 46    
Precipitation  
Precipitation 0.07 in 0.35 in 3.59 in (1998)
Month to date precipitation 2.39 5.18  
Year to date precipitation 54.31 45.58  
Snow  
Snow 0.00 in - - ()
Month to date snowfall 0.0  
Since 1 July snowfall 0.0  
Since 1 September snowfall 0.0  
Snow Depth 0.00 in    
Sea Level Pressure  
Sea Level Pressure 29.93 in    
Wind  
Wind Speed 6 mph (NW)    
Max Wind Speed 14 mph    
Max Gust Speed 19 mph    
Visibility 10 miles    
Events Rain , Thunderstorm    
T = Trace of Precipitation, MM = Missing Value Source: NWS Daily Summary

Daily Weather History Graph

Daily Weather History Graph

Search for Another Location

Airport or City:

Astronomy

Sep. 16, 2019 Rise Set
Actual Time 7:07 AM EDT 7:24 PM EDT
Civil Twilight 6:44 AM EDT 7:47 PM EDT
Nautical Twilight 6:17 AM EDT 8:14 PM EDT
Astronomical Twilight 5:50 AM EDT 8:41 PM EDT
Moon 9:10 PM EDT (9/16) 9:04 AM EDT (9/16)
Length of Visible Light 13h 03m
Length of Day
12h 17m
Waning Gibbous, 94% of the Moon is Illuminated
Sep 16
Waning Gibbous
Sep 21
Last Quarter
Sep 28
New
Oct 5
First Quarter
Oct 13
Full

Hourly Weather History & Observations

Time (EDT) Temp. Heat Index Dew Point Humidity Pressure Visibility Wind Dir Wind Speed Gust Speed Precip Events Conditions
1:53 AM 82.0 °F 87.9 °F 73.9 °F 76% 29.94 in 10.0 mi West 3.5 mph - N/A   Clear
2:53 AM 82.0 °F 89.4 °F 75.9 °F 82% 29.93 in 10.0 mi West 4.6 mph - N/A   Scattered Clouds
3:53 AM 82.0 °F 89.4 °F 75.9 °F 82% 29.92 in 10.0 mi West 3.5 mph - N/A   Scattered Clouds
4:42 AM 81.0 °F 87.9 °F 77.0 °F 88% 29.92 in 10.0 mi NW 5.8 mph - N/A   Mostly Cloudy
4:53 AM 81.0 °F 87.3 °F 75.9 °F 85% 29.92 in 10.0 mi NW 5.8 mph - N/A   Mostly Cloudy
5:13 AM 81.0 °F 87.3 °F 75.9 °F 85% 29.92 in 10.0 mi WNW 5.8 mph - N/A   Mostly Cloudy
5:35 AM 81.0 °F 86.7 °F 75.0 °F 82% 29.93 in 10.0 mi WNW 4.6 mph - N/A   Partly Cloudy
5:53 AM 81.0 °F 87.3 °F 75.9 °F 85% 29.94 in 10.0 mi West 5.8 mph - N/A   Scattered Clouds
6:53 AM 80.1 °F 85.1 °F 75.0 °F 85% 29.95 in 10.0 mi West 5.8 mph - N/A   Scattered Clouds
7:53 AM 81.0 °F 86.2 °F 73.9 °F 79% 29.97 in 10.0 mi WNW 6.9 mph - N/A   Scattered Clouds
8:53 AM 82.9 °F 89.4 °F 73.9 °F 74% 29.98 in 10.0 mi WNW 4.6 mph - N/A   Scattered Clouds
9:53 AM 86.0 °F 93.0 °F 73.0 °F 65% 29.99 in 10.0 mi West 9.2 mph - N/A   Scattered Clouds
10:53 AM 88.0 °F 95.6 °F 73.0 °F 61% 29.99 in 10.0 mi WNW 8.1 mph - N/A   Partly Cloudy
11:53 AM 90.0 °F 96.9 °F 72.0 °F 55% 29.98 in 10.0 mi West 8.1 mph - N/A   Scattered Clouds
12:53 PM 91.0 °F 98.2 °F 72.0 °F 53% 29.97 in 10.0 mi WNW 11.5 mph 18.4 mph N/A   Mostly Cloudy
1:53 PM 93.0 °F 100.7 °F 72.0 °F 50% 29.95 in 10.0 mi WNW 9.2 mph - 0.00 in   Mostly Cloudy
2:53 PM 93.0 °F 99.0 °F 70.0 °F 47% 29.93 in 10.0 mi WNW 10.4 mph - N/A   Scattered Clouds
3:53 PM 93.0 °F 99.0 °F 70.0 °F 47% 29.91 in 10.0 mi WNW 8.1 mph - N/A   Scattered Clouds
4:53 PM 93.0 °F 97.9 °F 69.1 °F 45% 29.89 in 10.0 mi WNW 8.1 mph - N/A   Scattered Clouds
5:53 PM 93.9 °F 100.3 °F 70.0 °F 46% 29.89 in 10.0 mi NNW 6.9 mph - N/A   Scattered Clouds
6:53 PM 91.9 °F 96.9 °F 69.1 °F 47% 29.89 in 10.0 mi NW 6.9 mph - N/A   Scattered Clouds
7:53 PM 90.0 °F 96.4 °F 71.1 °F 54% 29.90 in 10.0 mi NW 4.6 mph - N/A   Mostly Cloudy
8:53 PM 84.9 °F 93.3 °F 75.0 °F 72% 29.92 in 10.0 mi NE 4.6 mph - 0.00 in   Mostly Cloudy
9:16 PM 84.9 °F 95.3 °F 77.0 °F 77% 29.93 in 10.0 mi NNE 5.8 mph - N/A Thunderstorm Thunderstorm
9:31 PM 86.0 °F 96.0 °F 75.9 °F 72% 29.93 in 10.0 mi NNE 4.6 mph - 0.00 in Rain Light Rain
9:53 PM 84.9 °F 94.1 °F 75.9 °F 74% 29.94 in 10.0 mi NNE 4.6 mph - 0.00 in   Scattered Clouds
10:06 PM 84.9 °F 94.1 °F 75.9 °F 74% 29.93 in 10.0 mi NNE 4.6 mph - 0.00 in Rain , Thunderstorm Light Thunderstorms and Rain
10:46 PM 82.0 °F 90.2 °F 77.0 °F 85% 29.94 in 9.0 mi WNW 4.6 mph - 0.05 in Rain Light Rain
10:53 PM 82.0 °F 90.2 °F 77.0 °F 85% 29.94 in 4.0 mi North 4.6 mph - 0.05 in Rain Rain
11:27 PM 82.0 °F 89.4 °F 75.9 °F 82% 29.94 in 10.0 mi Calm Calm - 0.02 in   Overcast
11:53 PM 82.0 °F 90.2 °F 77.0 °F 85% 29.94 in 10.0 mi Calm Calm - 0.02 in   Mostly Cloudy